STARLINK-3788

operational
NORAD ID: 52271 Int'l Des: 2022-041 Owner: SPXS Country: US Constellation: starlink
LEOCIRCULAR

关于 STARLINK-3788

正在加载描述...

实时位置

正在加载3D地球...

即将过境

高度历史

Altitude vs Time

uPlot chart will show altitude changes over time

两行轨道根数

1 52271U 22041L 25251.59589587 .00002125 00000-0 15158-3 0 9990
2 52271 53.2162 206.5724 0001434 86.2541 273.8615 15.08836112186879
Epoch: Sep 8, 2025 • Age: 5 hours

当前状态

高度 545.3 km
速度 7.60 km/s
星下点 53.24°N, 20.84°E
发射日期 Apr 21, 2022
运行时间 3.3 years
类型 internet

技术详情

分类 Payload
质量 297.00 kg
干质量 275.00 kg
总质量 297.00 kg
长度 0.20 m
直径 2.80 m
跨度 9.00 m
形状 Box + pan
制造商 SPXS
平台类型 Starlink
阶段状态 In Orbit
所有者/国家 SPXS/US

大型星座

Loading constellations...